This is the latest recevied weather packets stored in our database for station/object NK2J. If no packets are shown the sender has not sent any weather packets the latest 10 day(s).
| Time | Temp. | Humidity | Pressure | Rain* | Wind** | Luminosity | Snow |
|---|---|---|---|---|---|---|---|
| 1777980918 | 16.67° C | 84% | 1012.6 hPa | 0 mm | - | 0 W/m² | - |
| 1777980614 | 16.67° C | 84% | 1012.6 hPa | 0 mm | - | 0 W/m² | - |
| 1777980310 | 16.67° C | 84% | 1012.6 hPa | 0 mm | - | 0 W/m² | - |
| 1777980009 | 16.67° C | 83% | 1012.7 hPa | 0 mm | - | 0 W/m² | - |
| 1777979701 | 16.67° C | 83% | 1012.9 hPa | 0 mm | - | 0 W/m² | - |
| 1777979398 | 16.67° C | 84% | 1012.9 hPa | 0 mm | - | 0 W/m² | - |
| 1777979095 | 16.67° C | 84% | 1012.9 hPa | 0 mm | - | 0 W/m² | - |
| 1777978791 | 16.67° C | 83% | 1013.1 hPa | 0 mm | - | 0 W/m² | - |
| 1777978488 | 16.67° C | 83% | 1013 hPa | 0 mm | - | 0 W/m² | - |
| 1777978184 | 16.67° C | 82% | 1012.9 hPa | 0 mm | - | 0 W/m² | - |
| 1777977877 | 16.67° C | 82% | 1013.1 hPa | 0 mm | - | 0 W/m² | - |
| 1777977573 | 16.67° C | 82% | 1013.3 hPa | 0 mm | - | 0 W/m² | - |
| 1777977270 | 16.67° C | 82% | 1013.5 hPa | 0 mm | - | 0 W/m² | - |
| 1777976967 | 16.67° C | 82% | 1013.5 hPa | 0 mm | - | 0 W/m² | - |
| 1777976665 | 16.67° C | 81% | 1013.7 hPa | 0 mm | - | 0 W/m² | - |
| 1777976361 | 16.67° C | 80% | 1014 hPa | 0 mm | - | 0 W/m² | - |
| 1777976061 | 16.67° C | 81% | 1013.6 hPa | 0 mm | - | 0 W/m² | - |
| 1777975757 | 17.22° C | 79% | 1013.7 hPa | 0 mm | - | 0 W/m² | - |
| 1777975454 | 17.22° C | 76% | 1013.8 hPa | 0 mm | - | 0 W/m² | - |
| 1777975149 | 17.22° C | 77% | 1013.8 hPa | 0 mm | - | 0 W/m² | - |
| 1777974846 | 16.67° C | 77% | 1013.8 hPa | 0 mm | - | 0 W/m² | - |
| 1777974542 | 16.67° C | 79% | 1013.9 hPa | 0 mm | - | 0 W/m² | - |
| 1777974240 | 16.67° C | 79% | 1013.7 hPa | 0 mm | - | 0 W/m² | - |
| 1777973935 | 16.67° C | 80% | 1013.8 hPa | 0 mm | - | 0 W/m² | - |
| 1777973633 | 16.67° C | 80% | 1013.8 hPa | 0 mm | - | 0 W/m² | - |
* Rain latest hour (hover to see other rain measurements)
** Current wind speed in m/s (hover to see current wind gust speed)